Clearfield, PA

4:26 AM EDT on July 23, 2017 (GMT -0400)
Clearfield-Lawrence

Weather History for KFIG - September, 2012

Change the Weather History Date:

Thursday, September 13, 2012

  Actual Average (KDUJ) Record (KDUJ)
Temperature  
Mean Temperature 64 °F -  
Max Temperature 82 °F 73 °F 84 °F (1962)
Min Temperature 48 °F 52 °F 34 °F (1964)
Degree Days  
Heating Degree Days 1    
Growing Degree Days 14 (Base 50)    
Moisture  
Dew Point 53 °F    
Average Humidity 78    
Maximum Humidity 100    
Minimum Humidity 40    
Precipitation  
Precipitation 0.00 in - - ()
Sea Level Pressure  
Sea Level Pressure 30.33 in    
Wind  
Wind Speed 3 mph (NNW)    
Max Wind Speed 7 mph    
Max Gust Speed -    
Visibility 8 miles    
Events Fog    
Averages and records for this station are not official NWS values.
T = Trace of Precipitation, MM = Missing Value Source: NWS Daily Summary

Daily Weather History Graph

Daily Weather History Graph

Search for Another Location

Airport or City:

Trip Planner

Search our weather history database for the weather conditions in past years. The results will help you decide how hot, cold, wet, or windy it might be!

Date:

Astronomy

Sep. 13, 2012 Rise Set
Actual Time 6:52 AM EDT 7:25 PM EDT
Civil Twilight 6:24 AM EDT 7:52 PM EDT
Nautical Twilight 5:52 AM EDT 8:25 PM EDT
Astronomical Twilight 5:18 AM EDT 8:59 PM EDT
Moon 4:09 AM EDT (9/13) 5:47 PM EDT (9/13)
Length of Visible Light 13h 28m
Length of Day
12h 32m
Waning Crescent, 7% of the Moon is Illuminated
Sep 13
Waning Crescent
Sep 15
New
Sep 22
First Quarter
Sep 29
Full
Oct 8
Last Quarter

Hourly Weather History & Observations

Time (EDT) Temp. Heat Index Dew Point Humidity Pressure Visibility Wind Dir Wind Speed Gust Speed Precip Events Conditions
12:54 AM 54.0 °F - 52.0 °F 93% 30.34 in 10.0 mi North 4.6 mph - N/A   Clear
1:54 AM 53.1 °F - 51.1 °F 93% 30.34 in 10.0 mi North 3.5 mph - N/A   Clear
2:54 AM 51.1 °F - 50.0 °F 96% 30.34 in 10.0 mi North 3.5 mph - N/A   Clear
3:54 AM 50.0 °F - 48.9 °F 96% 30.33 in 7.0 mi North 3.5 mph - N/A   Clear
4:54 AM 50.0 °F - 48.9 °F 96% 30.33 in 5.0 mi North 3.5 mph - N/A   Clear
5:54 AM 48.9 °F - 48.0 °F 97% 30.35 in 5.0 mi North 4.6 mph - N/A   Clear
6:54 AM 48.0 °F - 48.0 °F 100% 30.36 in 6.0 mi Calm Calm - N/A   Clear
7:51 AM 51.8 °F - 51.8 °F 100% 30.37 in 1.8 mi Calm Calm - N/A   Partly Cloudy
7:54 AM 51.1 °F - 51.1 °F 100% 30.37 in 0.8 mi Calm Calm - N/A   Mist
8:04 AM 51.8 °F - 51.8 °F 100% 30.38 in 0.2 mi Calm Calm - N/A Fog Fog
8:24 AM 53.6 °F - 51.8 °F 94% 30.37 in 1.0 mi Calm Calm - N/A   Mist
8:28 AM 53.6 °F - 51.8 °F 94% 30.37 in 3.0 mi Calm Calm - N/A   Mostly Cloudy
8:38 AM 55.4 °F - 53.6 °F 94% 30.38 in 10.0 mi Calm Calm - N/A   Scattered Clouds
8:54 AM 55.9 °F - 53.1 °F 90% 30.38 in 10.0 mi Calm Calm - N/A   Clear
9:54 AM 63.0 °F - 55.0 °F 75% 30.39 in 10.0 mi Calm Calm - N/A   Clear
10:54 AM 68.0 °F - 55.0 °F 63% 30.38 in 10.0 mi Calm Calm - N/A   Clear
11:54 AM 73.9 °F - 55.0 °F 52% 30.36 in 10.0 mi Variable 3.5 mph - N/A   Clear
12:54 PM 78.1 °F - 55.9 °F 46% 30.35 in 10.0 mi Variable 3.5 mph - N/A   Clear
1:54 PM 78.1 °F - 55.0 °F 45% 30.32 in 10.0 mi NW 4.6 mph - N/A   Partly Cloudy
2:54 PM 78.1 °F - 55.0 °F 45% 30.30 in 10.0 mi WSW 6.9 mph - N/A   Partly Cloudy
3:54 PM 80.1 °F 80.0 °F 54.0 °F 40% 30.29 in 10.0 mi Variable 3.5 mph - N/A   Clear
4:54 PM 80.1 °F 80.1 °F 55.0 °F 42% 30.27 in 10.0 mi NW 4.6 mph - N/A   Mostly Cloudy
5:54 PM 79.0 °F - 54.0 °F 42% 30.27 in 10.0 mi SSW 4.6 mph - N/A   Scattered Clouds
6:54 PM 75.9 °F - 55.0 °F 48% 30.26 in 10.0 mi Calm Calm - N/A   Clear
7:54 PM 68.0 °F - 59.0 °F 73% 30.27 in 10.0 mi Calm Calm - N/A   Clear
8:54 PM 64.0 °F - 57.9 °F 80% 30.28 in 10.0 mi North 5.8 mph - N/A   Clear
9:54 PM 62.1 °F - 57.0 °F 84% 30.28 in 10.0 mi NNW 4.6 mph - N/A   Clear
10:54 PM 60.1 °F - 55.9 °F 86% 30.29 in 10.0 mi North 4.6 mph - N/A   Clear
11:54 PM 57.9 °F - 55.9 °F 93% 30.29 in 9.0 mi NNW 4.6 mph - N/A   Clear